{"data":{"norad_id":43485,"intl_designator":"2018-048B","name":"LUOJIA-1 01","alt_names":[],"object_type":"PAYLOAD","status":"ACTIVE","operator":null,"country":"PRC","launch_date":"2018-06-02","launch_site_code":"JSC","launch_vehicle":null,"mission":null,"orbit_class":"UNKNOWN","rcs_meters":null,"size_class":null,"mass_kg":null,"dimensions":null,"purposes":[],"wikipedia_slug":null,"has_3d_model":false,"image_url":null,"decayed_at":null,"tle_current":{"epoch":"2026-05-25T03:56:47.677344Z","epoch_age_seconds":67764,"freshness":"FRESH","line1":"1 43485U 18048B   26145.16444071  .00001517  00000+0  17460-3 0  9994","line2":"2 43485  97.8095 223.7228 0008771 188.2838 171.8234 14.87180327430791","mean_motion":14.87180327,"eccentricity":0.0008771,"inclination_deg":97.8095,"raan_deg":223.7228,"arg_perigee_deg":188.2838,"mean_anomaly_deg":171.8234,"bstar":0.0001746,"rev_number":43079,"period_min":96.827531527722,"perigee_km":600.62412684531,"apogee_km":612.87701662365,"semimajor_km":6984.8875717345,"source":"CELESTRAK","updated_at":"2026-05-25T13:37:55.831900Z"}}}